Location: Stanford
(52.2833°N, 2.4333°W)
Time: 20:00:38
(UTC+00:00)

Cosmos 1833 Rocket - Pass Details

Date: 22 January 2021
Orbit: 833 x 839 km, 71.0° (Epoch: 27 February)

Event Time Altitude Azimuth Distance (km) Brightness Sun altitude
Rises 20:39:58 0° 323° (NW) 3,393 6.5 -36.3°
Reaches altitude 10° 20:42:41 10° 313° (NW) 2,455 5.7 -36.7°
Enters shadow 20:47:06 29° 261° (W) 1,503 4.4 -37.3°
